Location: Caltech
(34.1382°N, 118.1253°W)
Time: 10:01:41
(UTC-08:00)

ASTRO E2 - Visible Passes

Search period start: 06 December 2016 00:00
Search period end: 16 December 2016 00:00
Orbit: 516 x 523 km, 31.4° (Epoch: 04 December)

Date Brightness Start Highest point End Pass type
(mag) Time Alt. Az. Time Alt. Az. Time Alt. Az.
06 Dec 4.4 05:26:55 10° SW 05:30:27 29° SSE 05:33:58 10° E visible
07 Dec 4.2 05:11:36 18° SW 05:13:56 32° SSE 05:17:34 10° E visible
08 Dec 3.9 04:56:26 31° SSW 04:57:25 36° SSE 05:01:08 10° E visible
09 Dec 3.8 04:41:09 39° SSE 04:41:09 39° SSE 04:44:42 10° E visible
10 Dec 4.4 04:25:46 31° ESE 04:25:46 31° ESE 04:28:14 10° E visible
10 Dec 3.1 06:00:50 10° W 06:04:48 58° S 06:08:46 10° ESE visible
11 Dec 5.2 04:10:19 20° ESE 04:10:19 20° ESE 04:11:46 10° E visible
11 Dec 3.1 05:45:18 16° W 05:48:18 57° S 05:52:16 10° ESE visible
12 Dec 5.9 03:54:49 13° E 03:54:49 13° E 03:55:17 10° E visible
12 Dec 3.1 05:29:47 26° WSW 05:31:48 55° S 05:35:45 10° ESE visible
13 Dec 3.1 05:14:15 40° SW 05:15:18 52° S 05:19:14 10° ESE visible
14 Dec 3.2 04:58:43 49° SSW 04:58:46 49° S 05:02:41 10° ESE visible
15 Dec 3.8 04:43:10 38° SSE 04:43:10 38° SSE 04:46:08 10° ESE visible
15 Dec 4.7 06:19:33 10° WSW 06:22:27 19° SSW 06:25:21 10° SSE visible
